DUZEAR1 KTBR-KAQX

Flight info

Callsign DUZEAR1
Flight time 0h 18m
Altitude 5000
Route KTBR/14 N0242F050 DCT FAXAL DCT DOVER DCT AXNUP DCT KAQX/17
Aircraft PC12/L-SDE2FGIRWY/SB1

Departure

Time 2026-05-05 19:50
Airport Statesboro Bulloch County Airport (KTBR)

Arrival

Time 2026-05-05 20:08
Airport Allendale County Airport (KAQX)
Time Latitude Longitude Altitude Speed Heading
2026-05-05 18:55 32.48077 -81.74133 180 ft 0 kts 315°
2026-05-05 19:33 32.48076 -81.74133 180 ft 0 kts 315°
2026-05-05 19:49 32.48082 -81.74138 180 ft 6 kts 329°
2026-05-05 19:49 32.48149 -81.74158 180 ft 8 kts 340°
2026-05-05 19:49 32.48257 -81.74156 180 ft 17 kts
2026-05-05 19:50 32.48367 -81.74144 180 ft 15 kts 62°
2026-05-05 19:50 32.48221 -81.73952 180 ft 65 kts 135°
2026-05-05 19:50 32.47779 -81.73421 350 ft 106 kts 133°
2026-05-05 19:50 32.47217 -81.72681 872 ft 130 kts 134°
2026-05-05 19:51 32.46635 -81.71891 1783 ft 126 kts 133°
2026-05-05 19:51 32.46062 -81.71100 2579 ft 127 kts 133°
2026-05-05 19:51 32.45467 -81.70286 3461 ft 138 kts 132°
2026-05-05 19:51 32.44792 -81.69479 4333 ft 140 kts 150°
2026-05-05 19:52 32.43791 -81.69394 4929 ft 163 kts 197°
2026-05-05 19:52 32.42827 -81.70356 5017 ft 206 kts 237°
2026-05-05 19:52 32.42476 -81.72067 5020 ft 224 kts 270°
2026-05-05 19:52 32.42670 -81.73920 5013 ft 230 kts 281°
2026-05-05 19:53 32.43420 -81.75594 4997 ft 237 kts 313°
2026-05-05 19:53 32.44809 -81.76624 4993 ft 239 kts 343°
2026-05-05 19:53 32.46460 -81.76786 5003 ft 239 kts
2026-05-05 19:53 32.48118 -81.76666 5003 ft 238 kts
2026-05-05 19:54 32.49758 -81.76463 4985 ft 237 kts 14°
2026-05-05 19:54 32.51259 -81.75684 4996 ft 237 kts 33°
2026-05-05 19:54 32.52532 -81.74450 4998 ft 237 kts 43°
2026-05-05 19:54 32.53759 -81.73159 4997 ft 236 kts 43°
2026-05-05 19:55 32.54994 -81.71882 4982 ft 236 kts 42°
2026-05-05 19:55 32.56223 -81.70604 4992 ft 235 kts 43°
2026-05-05 19:55 32.57449 -81.69330 4993 ft 234 kts 43°
2026-05-05 19:55 32.58677 -81.68048 5011 ft 236 kts 43°
2026-05-05 19:56 32.59909 -81.66761 4999 ft 236 kts 43°
2026-05-05 19:56 32.61118 -81.65497 5003 ft 234 kts 43°
2026-05-05 19:56 32.62341 -81.64219 5028 ft 237 kts 42°
2026-05-05 19:56 32.63588 -81.62922 5001 ft 237 kts 43°
2026-05-05 19:57 32.64825 -81.61630 4993 ft 237 kts 43°
2026-05-05 19:57 32.65657 -81.60761 4988 ft 236 kts 43°
2026-05-05 19:57 32.67295 -81.59044 4995 ft 236 kts 43°
2026-05-05 19:57 32.68530 -81.57754 4999 ft 236 kts 43°
2026-05-05 19:58 32.69768 -81.56461 5000 ft 237 kts 43°
2026-05-05 19:58 32.70994 -81.55174 4992 ft 236 kts 43°
2026-05-05 19:58 32.71827 -81.54302 5007 ft 236 kts 43°
2026-05-05 19:58 32.73064 -81.53000 5009 ft 238 kts 45°
2026-05-05 19:59 32.74061 -81.51454 5005 ft 236 kts 64°
2026-05-05 19:59 32.74655 -81.49657 4998 ft 232 kts 73°
2026-05-05 19:59 32.75180 -81.47868 4994 ft 232 kts 72°
2026-05-05 19:59 32.75727 -81.46064 5001 ft 232 kts 72°
2026-05-05 20:00 32.76267 -81.44252 4982 ft 233 kts 72°
2026-05-05 20:00 32.76801 -81.42437 4978 ft 232 kts 73°
2026-05-05 20:00 32.77336 -81.40625 4977 ft 232 kts 72°
2026-05-05 20:00 32.77857 -81.38876 4984 ft 205 kts 73°
2026-05-05 20:01 32.78304 -81.37385 4972 ft 189 kts 73°
2026-05-05 20:01 32.78761 -81.35811 4970 ft 197 kts 73°
2026-05-05 20:01 32.79215 -81.34278 4976 ft 201 kts 73°
2026-05-05 20:01 32.79675 -81.32724 4974 ft 197 kts 73°
2026-05-05 20:02 32.80105 -81.31168 4791 ft 200 kts 76°
2026-05-05 20:02 32.80527 -81.29620 4554 ft 196 kts 74°
2026-05-05 20:02 32.80959 -81.28076 4286 ft 196 kts 75°
2026-05-05 20:02 32.81380 -81.26540 4032 ft 195 kts 75°
2026-05-05 20:03 32.81793 -81.25016 3787 ft 193 kts 75°
2026-05-05 20:03 32.82383 -81.23581 3515 ft 196 kts 56°
2026-05-05 20:03 32.83385 -81.22491 3262 ft 198 kts 34°
2026-05-05 20:03 32.84565 -81.21931 3027 ft 173 kts 13°
2026-05-05 20:04 32.85750 -81.21861 2789 ft 171 kts 354°
2026-05-05 20:04 32.86897 -81.22215 2569 ft 172 kts 342°
2026-05-05 20:04 32.87990 -81.22635 2338 ft 166 kts 344°
2026-05-05 20:04 32.89049 -81.23029 2167 ft 156 kts 344°
2026-05-05 20:05 32.90024 -81.23403 1938 ft 139 kts 343°
2026-05-05 20:05 32.90925 -81.23746 1783 ft 118 kts 344°
2026-05-05 20:05 32.91662 -81.24027 1648 ft 115 kts 344°
2026-05-05 20:05 32.92453 -81.24326 1497 ft 116 kts 343°
2026-05-05 20:06 32.93198 -81.24611 1339 ft 111 kts 342°
2026-05-05 20:06 32.93954 -81.24899 1193 ft 117 kts 342°
2026-05-05 20:06 32.94710 -81.25188 1033 ft 108 kts 342°
2026-05-05 20:06 32.95182 -81.25368 935 ft 107 kts 342°
2026-05-05 20:07 32.95377 -81.25443 896 ft 105 kts 342°
2026-05-05 20:07 32.96058 -81.25702 757 ft 101 kts 342°
2026-05-05 20:07 32.96720 -81.25954 626 ft 100 kts 342°
2026-05-05 20:07 32.97376 -81.26205 497 ft 99 kts 342°
2026-05-05 20:08 32.98017 -81.26455 371 ft 98 kts 342°
2026-05-05 20:08 32.98646 -81.26694 224 ft 92 kts 342°
2026-05-05 20:08 32.99205 -81.26907 166 ft 73 kts 342°
2026-05-05 20:08 32.99522 -81.27028 165 ft 39 kts 342°
2026-05-05 20:09 32.99700 -81.27096 164 ft 18 kts 342°
2026-05-05 20:09 32.99753 -81.27121 164 ft 11 kts 190°
2026-05-05 20:09 32.99687 -81.27174 162 ft 15 kts 161°
2026-05-05 20:09 32.99553 -81.27122 163 ft 19 kts 162°
2026-05-05 20:10 32.99420 -81.27071 164 ft 17 kts 163°
2026-05-05 20:10 32.99336 -81.27055 164 ft 8 kts 199°
2026-05-05 20:10 32.99324 -81.27105 164 ft 7 kts 337°
2026-05-05 20:10 32.99331 -81.27108 164 ft 0 kts 341°